Location: B?dimalle
(17.1788°N, 80.5377°E)
Time: 12:20:07
(UTC+00:00)

Courier 1B Rocket - Pass Details

Date: 20 December 2025
Orbit: 920 x 1201 km, 28.2° (Epoch: 25 January)

Event Time Altitude Azimuth Distance (km) Brightness Sun altitude
Rises 14:50:12 0° 277° (W) 4,041 9.0 -37.1°
Reaches altitude 10° 14:53:14 10° 285° (WNW) 3,101 8.2 -37.8°
Enters shadow 14:58:05 32° 317° (NW) 1,909 6.6 -38.9°
